Location: Schommer Observatory
(40.5200°N, 74.4500°W)
Time: 17:17:52
(UTC-04:00)

Vanguard 1 Rocket - Visible Passes

Search period start: 18 September 2018 00:00
Search period end: 28 September 2018 00:00
Orbit: 650 x 4226 km, 34.3° (Epoch: 17 September)

Date Brightness Start Highest point End Pass type
(mag) Time Alt. Az. Time Alt. Az. Time Alt. Az.
18 Sep 7.7 21:05:31 10° WSW 21:09:56 42° S 21:10:16 41° S visible
19 Sep 7.5 19:55:07 10° WSW 19:59:16 41° S 20:02:58 17° ESE visible
19 Sep 9.4 22:19:15 10° WSW 22:20:14 15° WSW 22:20:14 15° WSW visible
20 Sep 8.0 21:08:48 10° WSW 21:12:57 35° S 21:12:57 35° S visible
21 Sep 7.6 19:58:17 10° WSW 20:02:22 39° S 20:05:41 18° ESE visible
21 Sep 9.7 22:22:51 10° WSW 22:22:57 10° WSW 22:22:57 10° WSW visible
22 Sep 8.3 21:12:10 10° WSW 21:15:42 28° SSW 21:15:42 28° SSW visible
23 Sep 7.8 20:01:29 10° WSW 20:05:29 34° S 20:08:27 18° SE visible
24 Sep 8.7 21:15:41 10° WSW 21:18:31 21° SSW 21:18:31 21° SSW visible
25 Sep 8.1 20:04:46 10° WSW 20:08:34 28° SSW 20:11:19 17° SE visible
26 Sep 9.1 21:19:33 10° WSW 21:21:26 15° SSW 21:21:26 15° SSW visible
27 Sep 8.5 20:08:09 10° WSW 20:11:37 22° SSW 20:14:16 14° SSE visible
